Sunlight Mountain, CO

11:46 AM MDT on June 25, 2017 (GMT -0600)
Sunlight Mountain

Weather History for K5SM - September, 2013

Change the Weather History Date:

Wednesday, September 25, 2013

  Actual Average (KRIL) Record (KRIL)
Temperature  
Mean Temperature 47 °F -  
Max Temperature 57 °F 74 °F 88 °F (1936)
Min Temperature 37 °F 38 °F 23 °F (1937)
Degree Days  
Heating Degree Days 18    
Moisture  
Dew Point 28 °F    
Average Humidity 51    
Maximum Humidity 75    
Minimum Humidity 33    
Precipitation  
Precipitation 0.00 in - - ()
Sea Level Pressure  
Sea Level Pressure 30.04 in    
Wind  
Wind Speed 3 mph (South)    
Max Wind Speed 7 mph    
Max Gust Speed -    
Visibility 10 miles    
Events      
Averages and records for this station are not official NWS values.
T = Trace of Precipitation, MM = Missing Value Source: NWS Daily Summary

Daily Weather History Graph

Daily Weather History Graph

Search for Another Location

Airport or City:

Trip Planner

Search our weather history database for the weather conditions in past years. The results will help you decide how hot, cold, wet, or windy it might be!

Date:

Astronomy

Sep. 25, 2013 Rise Set
Actual Time 7:00 AM MDT 7:01 PM MDT
Civil Twilight 6:33 AM MDT 7:27 PM MDT
Nautical Twilight 6:02 AM MDT 7:59 PM MDT
Astronomical Twilight 5:30 AM MDT 8:30 PM MDT
Moon 11:11 PM MDT 1:06 PM MDT
Length of Visible Light 12h 54m
Length of Day
12h 00m
Waning Gibbous, 63% of the Moon is Illuminated
Sep 25
Waning Gibbous
Sep 26
Last Quarter
Oct 4
New
Oct 11
First Quarter
Oct 18
Full

Hourly Weather History & Observations

Time (MDT) Temp. Windchill Dew Point Humidity Pressure Visibility Wind Dir Wind Speed Gust Speed Precip Events Conditions
12:15 AM 41.0 °F 38.0 °F 26.6 °F 57% 30.25 in 10.0 mi SSE 4.6 mph - N/A   Clear
12:35 AM 41.0 °F 38.0 °F 26.6 °F 57% 30.24 in 10.0 mi South 4.6 mph - N/A   Clear
12:55 AM 41.0 °F - 26.6 °F 57% 30.24 in 10.0 mi Calm Calm - N/A   Clear
1:15 AM 41.0 °F - 26.6 °F 57% 30.23 in 10.0 mi Calm Calm - N/A   Clear
1:35 AM 41.0 °F 39.0 °F 26.6 °F 57% 30.22 in 10.0 mi South 3.5 mph - N/A   Clear
1:55 AM 41.0 °F 39.0 °F 26.6 °F 57% 30.22 in 10.0 mi South 3.5 mph - N/A   Clear
2:15 AM 41.0 °F 39.0 °F 28.4 °F 61% 30.21 in 10.0 mi SSW 3.5 mph - N/A   Clear
2:35 AM 41.0 °F 38.0 °F 26.6 °F 57% 30.20 in 10.0 mi South 4.6 mph - N/A   Clear
2:55 AM 41.0 °F - 26.6 °F 57% 30.19 in 10.0 mi Calm Calm - N/A   Clear
3:15 AM 41.0 °F - 28.4 °F 61% 30.19 in 10.0 mi Calm Calm - N/A   Clear
3:35 AM 41.0 °F 39.0 °F 26.6 °F 57% 30.19 in 10.0 mi South 3.5 mph - N/A   Clear
3:55 AM 41.0 °F - 26.6 °F 57% 30.18 in 10.0 mi Calm Calm - N/A   Clear
4:15 AM 41.0 °F - 26.6 °F 57% 30.17 in 10.0 mi Calm Calm - N/A   Clear
4:35 AM 41.0 °F - 26.6 °F 57% 30.17 in 10.0 mi Calm Calm - N/A   Clear
4:55 AM 41.0 °F - 26.6 °F 57% 30.15 in 10.0 mi Calm Calm - N/A   Clear
5:15 AM 41.0 °F 38.0 °F 28.4 °F 61% 30.14 in 10.0 mi SSW 4.6 mph - N/A   Clear
5:35 AM 41.0 °F 38.0 °F 30.2 °F 65% 30.13 in 10.0 mi SSW 4.6 mph - N/A   Clear
5:55 AM 39.2 °F 37.0 °F 30.2 °F 70% 30.12 in 10.0 mi SSW 3.5 mph - N/A   Clear
6:15 AM 41.0 °F 39.0 °F 28.4 °F 61% 30.13 in 10.0 mi SW 3.5 mph - N/A   Clear
6:35 AM 41.0 °F 39.0 °F 30.2 °F 65% 30.13 in 10.0 mi SSW 3.5 mph - N/A   Clear
6:55 AM 37.4 °F - 30.2 °F 75% 30.12 in 10.0 mi Calm Calm - N/A   Clear
7:14 AM 41.0 °F 39.0 °F 28.4 °F 61% 30.11 in 10.0 mi South 3.5 mph - N/A   Clear
7:35 AM 41.0 °F - 28.4 °F 61% 30.11 in 10.0 mi Calm Calm - N/A   Clear
7:55 AM 41.0 °F 38.0 °F 28.4 °F 61% 30.09 in 10.0 mi SSW 4.6 mph - N/A   Clear
8:15 AM 41.0 °F 39.0 °F 28.4 °F 61% 30.10 in 10.0 mi South 3.5 mph - N/A   Clear
8:35 AM 42.8 °F - 30.2 °F 61% 30.09 in 10.0 mi Calm Calm - N/A   Clear
8:55 AM 42.8 °F - 30.2 °F 61% 30.09 in 10.0 mi Calm Calm - N/A   Clear
9:15 AM 44.6 °F 42.2 °F 28.4 °F 53% 30.08 in 10.0 mi South 4.6 mph - N/A   Clear
9:35 AM 44.6 °F 42.2 °F 28.4 °F 53% 30.07 in 10.0 mi SW 4.6 mph - N/A   Clear
9:55 AM 46.4 °F 45.2 °F 28.4 °F 50% 30.06 in 10.0 mi SSE 3.5 mph - N/A   Clear
10:15 AM 46.4 °F 45.2 °F 28.4 °F 50% 30.05 in 10.0 mi SSW 3.5 mph - N/A   Clear
10:35 AM 48.2 °F - 26.6 °F 43% 30.05 in 10.0 mi South 3.5 mph - N/A   Clear
10:54 AM 50.0 °F - 28.4 °F 43% 30.05 in 10.0 mi South 3.5 mph - N/A   Clear
11:14 AM 51.8 °F - 26.6 °F 38% 30.05 in 10.0 mi South 3.5 mph - N/A   Clear
11:35 AM 51.8 °F - 28.4 °F 41% 30.04 in 10.0 mi South 5.8 mph - N/A   Clear
11:55 AM 51.8 °F - 28.4 °F 41% 30.03 in 10.0 mi SSW 4.6 mph - N/A   Clear
12:15 PM 53.6 °F - 28.4 °F 38% 30.00 in 10.0 mi SE 3.5 mph - N/A   Clear
12:34 PM 53.6 °F - 26.6 °F 35% 30.00 in 10.0 mi SSE 3.5 mph - N/A   Clear
12:55 PM 53.6 °F - 28.4 °F 38% 30.00 in 10.0 mi SSW 5.8 mph - N/A   Clear
1:15 PM 55.4 °F - 28.4 °F 36% 29.98 in 10.0 mi South 3.5 mph - N/A   Clear
1:35 PM 55.4 °F - 28.4 °F 36% 29.97 in 10.0 mi WSW 3.5 mph - N/A   Clear
1:54 PM 55.4 °F - 28.4 °F 36% 29.96 in 10.0 mi SSW 3.5 mph - N/A   Clear
2:15 PM 57.2 °F - 28.4 °F 33% 29.96 in 10.0 mi SW 3.5 mph - N/A   Clear
2:35 PM 55.4 °F - 28.4 °F 36% 29.95 in 10.0 mi South 3.5 mph - N/A   Clear
2:55 PM 55.4 °F - 28.4 °F 36% 29.96 in 10.0 mi Calm Calm - N/A   Clear
3:15 PM 55.4 °F - 28.4 °F 36% 29.96 in 10.0 mi Calm Calm - N/A   Clear
3:34 PM 55.4 °F - 30.2 °F 38% 29.94 in 10.0 mi Calm Calm - N/A   Clear
3:54 PM 55.4 °F - 30.2 °F 38% 29.93 in 10.0 mi Calm Calm - N/A   Clear
4:15 PM 53.6 °F - 30.2 °F 41% 29.94 in 10.0 mi SSW 3.5 mph - N/A   Clear
4:34 PM 55.4 °F - 30.2 °F 38% 29.93 in 10.0 mi SSW 4.6 mph - N/A   Clear
4:52 PM 53.6 °F - 30.2 °F 41% 29.93 in 10.0 mi South 3.5 mph - N/A   Clear
5:14 PM 51.8 °F - 28.4 °F 41% 29.94 in 10.0 mi SSE 3.5 mph - N/A   Clear
5:34 PM 51.8 °F - 30.2 °F 44% 29.94 in 10.0 mi South 5.8 mph - N/A   Scattered Clouds
5:55 PM 50.0 °F - 30.2 °F 47% 29.93 in 10.0 mi South 3.5 mph - N/A   Clear
6:14 PM 50.0 °F - 28.4 °F 43% 29.94 in 10.0 mi South 3.5 mph - N/A   Scattered Clouds
6:35 PM 46.4 °F 45.2 °F 30.2 °F 53% 29.94 in 10.0 mi South 3.5 mph - N/A   Scattered Clouds
6:55 PM 46.4 °F - 28.4 °F 50% 29.93 in 10.0 mi Calm Calm - N/A   Scattered Clouds
7:13 PM 46.4 °F 45.2 °F 30.2 °F 53% 29.93 in 10.0 mi South 3.5 mph - N/A   Clear
7:35 PM 46.4 °F - 30.2 °F 53% 29.94 in 10.0 mi Calm Calm - N/A   Scattered Clouds
7:55 PM 46.4 °F 44.3 °F 30.2 °F 53% 29.93 in 10.0 mi South 4.6 mph - N/A   Scattered Clouds
8:15 PM 46.4 °F - 30.2 °F 53% 29.94 in 10.0 mi Calm Calm - N/A   Scattered Clouds
8:35 PM 46.4 °F 45.2 °F 30.2 °F 53% 29.95 in 10.0 mi SW 3.5 mph - N/A   Scattered Clouds
8:55 PM 46.4 °F - 30.2 °F 53% 29.96 in 10.0 mi Calm Calm - N/A   Scattered Clouds
9:14 PM 46.4 °F 44.3 °F 28.4 °F 50% 29.95 in 10.0 mi South 4.6 mph - N/A   Overcast
9:35 PM 46.4 °F 44.3 °F 28.4 °F 50% 29.95 in 10.0 mi SSW 4.6 mph - N/A   Overcast
9:55 PM 44.6 °F 43.1 °F 26.6 °F 49% 29.95 in 10.0 mi South 3.5 mph - N/A   Overcast
10:14 PM 44.6 °F 42.2 °F 28.4 °F 53% 29.94 in 10.0 mi South 4.6 mph - N/A   Mostly Cloudy
10:35 PM 44.6 °F 43.1 °F 28.4 °F 53% 29.94 in 10.0 mi SSW 3.5 mph - N/A   Mostly Cloudy
10:55 PM 44.6 °F 42.2 °F 28.4 °F 53% 29.94 in 10.0 mi SSE 4.6 mph - N/A   Scattered Clouds
11:15 PM 44.6 °F 43.1 °F 28.4 °F 53% 29.94 in 10.0 mi SE 3.5 mph - N/A   Scattered Clouds
11:35 PM 42.8 °F 38.6 °F 28.4 °F 57% 29.94 in 10.0 mi South 6.9 mph - N/A   Clear
11:55 PM 44.6 °F 41.4 °F 28.4 °F 53% 29.95 in 10.0 mi South 5.8 mph - N/A   Clear